FHKAF LFKC-LFKJ

Flight info

Callsign FHKAF
Flight time 1h 2m
Altitude 8000
Route AJO
Aircraft DA42/L-SBDGRY/S

Departure

Time 2026-05-03 20:38
Airport Calvi Sainte Catherine Airport (LFKC)

Arrival

Time 2026-05-03 21:41
Airport Ajaccio Napoléon Bonaparte airport (LFKJ)
Time Latitude Longitude Altitude Speed Heading
2026-05-03 20:15 42.52331 8.79135 113 ft 0 kts 180°
2026-05-03 20:33 42.52329 8.79135 195 ft 0 kts 180°
2026-05-03 20:34 42.52327 8.79135 195 ft 1 kts 180°
2026-05-03 20:34 42.52305 8.79145 201 ft 4 kts 102°
2026-05-03 20:34 42.52293 8.79196 203 ft 8 kts 175°
2026-05-03 20:34 42.52250 8.79200 203 ft 5 kts 147°
2026-05-03 20:35 42.52249 8.79201 203 ft 0 kts 142°
2026-05-03 20:37 42.52244 8.79256 204 ft 10 kts 84°
2026-05-03 20:37 42.52323 8.79299 198 ft 37 kts
2026-05-03 20:37 42.52768 8.79297 207 ft 81 kts 359°
2026-05-03 20:38 42.53339 8.79292 557 ft 83 kts 358°
2026-05-03 20:38 42.53912 8.79279 941 ft 87 kts 358°
2026-05-03 20:38 42.54568 8.79254 1142 ft 96 kts
2026-05-03 20:38 42.55206 8.79224 1452 ft 88 kts 359°
2026-05-03 20:39 42.55839 8.79207 1722 ft 94 kts
2026-05-03 20:39 42.56499 8.79192 2002 ft 96 kts
2026-05-03 20:39 42.57179 8.79184 2238 ft 98 kts 360°
2026-05-03 20:39 42.57848 8.79180 2494 ft 96 kts
2026-05-03 20:40 42.58525 8.79151 2702 ft 98 kts 351°
2026-05-03 20:40 42.59074 8.78614 2933 ft 104 kts 306°
2026-05-03 20:40 42.59452 8.77763 3161 ft 106 kts 303°
2026-05-03 20:40 42.59839 8.76899 3379 ft 108 kts 304°
2026-05-03 20:41 42.60221 8.76015 3598 ft 109 kts 305°
2026-05-03 20:41 42.60681 8.75197 3827 ft 110 kts 308°
2026-05-03 20:41 42.61137 8.74353 4056 ft 111 kts 307°
2026-05-03 20:41 42.61594 8.73520 4290 ft 111 kts 307°
2026-05-03 20:42 42.62066 8.72686 4527 ft 112 kts 308°
2026-05-03 20:42 42.62549 8.71843 4765 ft 113 kts 308°
2026-05-03 20:42 42.63048 8.71000 4995 ft 117 kts 307°
2026-05-03 20:42 42.63577 8.70148 5216 ft 118 kts 308°
2026-05-03 20:43 42.64060 8.69246 5451 ft 118 kts 301°
2026-05-03 20:43 42.64522 8.68321 5704 ft 118 kts 301°
2026-05-03 20:43 42.64956 8.67374 5948 ft 118 kts 295°
2026-05-03 20:43 42.65338 8.66387 6194 ft 118 kts 291°
2026-05-03 20:44 42.65695 8.65380 6438 ft 119 kts 291°
2026-05-03 20:44 42.66102 8.64399 6671 ft 120 kts 297°
2026-05-03 20:44 42.66550 8.63443 6903 ft 120 kts 298°
2026-05-03 20:44 42.66998 8.62485 7136 ft 120 kts 298°
2026-05-03 20:45 42.67446 8.61529 7371 ft 120 kts 298°
2026-05-03 20:45 42.67894 8.60572 7606 ft 120 kts 298°
2026-05-03 20:45 42.68341 8.59612 7841 ft 120 kts 298°
2026-05-03 20:45 42.68807 8.58663 8081 ft 121 kts 300°
2026-05-03 20:46 42.69296 8.57677 8169 ft 134 kts 300°
2026-05-03 20:46 42.69840 8.56562 8179 ft 148 kts 300°
2026-05-03 20:46 42.70416 8.55375 8176 ft 151 kts 300°
2026-05-03 20:46 42.70992 8.54183 8173 ft 151 kts 300°
2026-05-03 20:47 42.71568 8.52995 8171 ft 150 kts 300°
2026-05-03 20:47 42.72143 8.51807 8170 ft 150 kts 300°
2026-05-03 20:47 42.72716 8.50624 8170 ft 150 kts 300°
2026-05-03 20:47 42.73290 8.49439 8169 ft 150 kts 300°
2026-05-03 20:48 42.73856 8.48271 8166 ft 150 kts 300°
2026-05-03 20:48 42.74430 8.47086 8165 ft 150 kts 300°
2026-05-03 20:48 42.75004 8.45901 8163 ft 150 kts 300°
2026-05-03 20:48 42.75578 8.44716 8162 ft 150 kts 300°
2026-05-03 20:49 42.76152 8.43531 8160 ft 150 kts 300°
2026-05-03 20:49 42.76727 8.42345 8160 ft 150 kts 300°
2026-05-03 20:49 42.77301 8.41160 8159 ft 150 kts 300°
2026-05-03 20:49 42.77875 8.39975 8159 ft 150 kts 300°
2026-05-03 20:50 42.78449 8.38791 8159 ft 150 kts 300°
2026-05-03 20:50 42.78992 8.37584 8152 ft 148 kts 287°
2026-05-03 20:50 42.78945 8.36257 8152 ft 141 kts 240°
2026-05-03 20:50 42.78230 8.35430 8157 ft 137 kts 202°
2026-05-03 20:51 42.77332 8.34996 8157 ft 137 kts 198°
2026-05-03 20:51 42.76427 8.34589 8158 ft 137 kts 198°
2026-05-03 20:51 42.75516 8.34220 8157 ft 137 kts 187°
2026-05-03 20:51 42.74580 8.34035 8160 ft 136 kts 192°
2026-05-03 20:52 42.73667 8.33718 8160 ft 135 kts 195°
2026-05-03 20:52 42.72765 8.33356 8160 ft 135 kts 196°
2026-05-03 20:52 42.71868 8.32979 8156 ft 135 kts 197°
2026-05-03 20:52 42.70970 8.32597 8152 ft 135 kts 196°
2026-05-03 20:53 42.70075 8.32215 8152 ft 135 kts 196°
2026-05-03 20:53 42.69182 8.31832 8152 ft 134 kts 196°
2026-05-03 20:53 42.68289 8.31450 8150 ft 135 kts 196°
2026-05-03 20:53 42.67396 8.31069 8150 ft 135 kts 196°
2026-05-03 20:54 42.66504 8.30687 8150 ft 135 kts 196°
2026-05-03 20:54 42.64720 8.29925 8147 ft 134 kts 196°
2026-05-03 20:54 42.63828 8.29544 8147 ft 134 kts 196°
2026-05-03 20:55 42.62937 8.29163 8147 ft 134 kts 196°
2026-05-03 20:55 42.62047 8.28783 8147 ft 134 kts 196°
2026-05-03 20:55 42.61157 8.28403 8150 ft 134 kts 196°
2026-05-03 20:55 42.60266 8.28024 8150 ft 134 kts 196°
2026-05-03 20:56 42.59375 8.27644 8150 ft 135 kts 196°
2026-05-03 20:56 42.58483 8.27263 8151 ft 135 kts 196°
2026-05-03 20:56 42.57588 8.26882 8153 ft 135 kts 196°
2026-05-03 20:56 42.56694 8.26501 8153 ft 135 kts 196°
2026-05-03 20:57 42.55799 8.26120 8151 ft 135 kts 196°
2026-05-03 20:57 42.54903 8.25738 8151 ft 135 kts 196°
2026-05-03 20:57 42.54008 8.25357 8151 ft 135 kts 196°
2026-05-03 20:57 42.53113 8.24976 8151 ft 135 kts 196°
2026-05-03 20:58 42.52218 8.24595 8151 ft 135 kts 196°
2026-05-03 20:58 42.51323 8.24214 8151 ft 135 kts 196°
2026-05-03 20:58 42.50428 8.23833 8151 ft 135 kts 196°
2026-05-03 20:58 42.49534 8.23453 8151 ft 135 kts 196°
2026-05-03 20:59 42.48640 8.23073 8151 ft 135 kts 196°
2026-05-03 20:59 42.47735 8.22774 8149 ft 134 kts 184°
2026-05-03 20:59 42.46825 8.22934 8149 ft 135 kts 163°
2026-05-03 20:59 42.45973 8.23479 8151 ft 136 kts 156°
2026-05-03 21:00 42.45129 8.24050 8150 ft 136 kts 156°
2026-05-03 21:00 42.44843 8.24244 8150 ft 136 kts 156°
2026-05-03 21:00 42.43441 8.25196 8150 ft 136 kts 156°
2026-05-03 21:00 42.42598 8.25769 8150 ft 136 kts 156°
2026-05-03 21:01 42.41754 8.26342 8150 ft 136 kts 156°
2026-05-03 21:01 42.40911 8.26914 8150 ft 136 kts 156°
2026-05-03 21:01 42.40068 8.27485 8151 ft 136 kts 156°
2026-05-03 21:01 42.39223 8.28059 8148 ft 136 kts 156°
2026-05-03 21:02 42.38377 8.28632 8148 ft 136 kts 156°
2026-05-03 21:02 42.37534 8.29203 8148 ft 136 kts 156°
2026-05-03 21:02 42.36690 8.29774 8148 ft 136 kts 156°
2026-05-03 21:02 42.35846 8.30346 8148 ft 136 kts 156°
2026-05-03 21:03 42.35003 8.30916 8148 ft 135 kts 156°
2026-05-03 21:03 42.34162 8.31487 8148 ft 135 kts 156°
2026-05-03 21:03 42.33320 8.32061 8151 ft 136 kts 156°
2026-05-03 21:03 42.32477 8.32633 8151 ft 136 kts 156°
2026-05-03 21:04 42.31631 8.33200 8151 ft 136 kts 156°
2026-05-03 21:04 42.30785 8.33770 8146 ft 136 kts 156°
2026-05-03 21:04 42.29940 8.34340 8144 ft 136 kts 155°
2026-05-03 21:04 42.29094 8.34910 8147 ft 136 kts 155°
2026-05-03 21:05 42.28248 8.35482 8146 ft 136 kts 155°
2026-05-03 21:05 42.27401 8.36053 8147 ft 136 kts 155°
2026-05-03 21:05 42.26556 8.36624 8146 ft 136 kts 155°
2026-05-03 21:05 42.25709 8.37196 8146 ft 136 kts 155°
2026-05-03 21:06 42.24863 8.37766 8147 ft 136 kts 155°
2026-05-03 21:06 42.24015 8.38338 8147 ft 136 kts 155°
2026-05-03 21:06 42.23168 8.38909 8147 ft 136 kts 155°
2026-05-03 21:06 42.22318 8.39481 8144 ft 136 kts 155°
2026-05-03 21:07 42.21469 8.40053 8144 ft 136 kts 155°
2026-05-03 21:07 42.20620 8.40625 8144 ft 136 kts 155°
2026-05-03 21:07 42.19771 8.41196 8144 ft 136 kts 155°
2026-05-03 21:07 42.18922 8.41767 8144 ft 136 kts 155°
2026-05-03 21:08 42.18085 8.42330 8144 ft 136 kts 155°
2026-05-03 21:08 42.17236 8.42901 8144 ft 136 kts 155°
2026-05-03 21:08 42.16386 8.43473 8146 ft 136 kts 155°
2026-05-03 21:08 42.15538 8.44043 8146 ft 136 kts 155°
2026-05-03 21:09 42.14689 8.44613 8146 ft 136 kts 155°
2026-05-03 21:09 42.13840 8.45184 8146 ft 136 kts 155°
2026-05-03 21:09 42.12990 8.45755 8138 ft 136 kts 155°
2026-05-03 21:09 42.12125 8.46334 7977 ft 139 kts 155°
2026-05-03 21:10 42.11266 8.46908 7801 ft 137 kts 155°
2026-05-03 21:10 42.10420 8.47476 7638 ft 135 kts 155°
2026-05-03 21:10 42.09587 8.48036 7460 ft 132 kts 155°
2026-05-03 21:10 42.08772 8.48582 7288 ft 130 kts 154°
2026-05-03 21:11 42.07966 8.49124 7118 ft 129 kts 154°
2026-05-03 21:11 42.07164 8.49662 6951 ft 129 kts 154°
2026-05-03 21:11 42.06366 8.50196 6784 ft 128 kts 154°
2026-05-03 21:11 42.05572 8.50728 6618 ft 127 kts 154°
2026-05-03 21:12 42.04780 8.51258 6443 ft 127 kts 154°
2026-05-03 21:12 42.03991 8.51786 6267 ft 126 kts 154°
2026-05-03 21:12 42.03205 8.52313 6089 ft 126 kts 153°
2026-05-03 21:12 42.02422 8.52836 5913 ft 125 kts 153°
2026-05-03 21:13 42.01905 8.53182 5797 ft 125 kts 153°
2026-05-03 21:13 42.01128 8.53702 5625 ft 125 kts 153°
2026-05-03 21:13 42.00353 8.54220 5437 ft 124 kts 153°
2026-05-03 21:13 41.99580 8.54736 5276 ft 124 kts 153°
2026-05-03 21:14 41.98810 8.55251 5104 ft 123 kts 152°
2026-05-03 21:14 41.98042 8.55764 4928 ft 123 kts 152°
2026-05-03 21:14 41.97276 8.56275 4754 ft 123 kts 152°
2026-05-03 21:14 41.96512 8.56785 4577 ft 123 kts 152°
2026-05-03 21:15 41.95750 8.57294 4398 ft 122 kts 152°
2026-05-03 21:15 41.94988 8.57803 4225 ft 122 kts 152°
2026-05-03 21:15 41.94227 8.58310 4051 ft 122 kts 152°
2026-05-03 21:15 41.93468 8.58816 3877 ft 122 kts 152°
2026-05-03 21:16 41.92710 8.59322 3704 ft 122 kts 152°
2026-05-03 21:16 41.91954 8.59826 3532 ft 121 kts 152°
2026-05-03 21:16 41.91161 8.60200 3356 ft 124 kts 175°
2026-05-03 21:16 41.90366 8.59754 3179 ft 131 kts 221°
2026-05-03 21:17 41.90033 8.58621 3056 ft 133 kts 269°
2026-05-03 21:17 41.90372 8.57497 3056 ft 134 kts 311°
2026-05-03 21:17 41.91041 8.56611 3059 ft 136 kts 316°
2026-05-03 21:17 41.91732 8.55741 3059 ft 137 kts 317°
2026-05-03 21:18 41.92427 8.54867 3060 ft 137 kts 317°
2026-05-03 21:18 41.93129 8.53988 3059 ft 138 kts 317°
2026-05-03 21:18 41.93959 8.53389 3053 ft 137 kts 355°
2026-05-03 21:18 41.94847 8.53679 3055 ft 131 kts 39°
2026-05-03 21:19 41.95306 8.54656 3060 ft 124 kts 85°
2026-05-03 21:19 41.95098 8.55719 3057 ft 120 kts 129°
2026-05-03 21:19 41.94511 8.56513 3061 ft 120 kts 136°
2026-05-03 21:19 41.93912 8.57273 3059 ft 120 kts 137°
2026-05-03 21:20 41.93303 8.58040 3059 ft 120 kts 137°
2026-05-03 21:20 41.92691 8.58808 3060 ft 120 kts 137°
2026-05-03 21:20 41.92079 8.59576 3057 ft 121 kts 137°
2026-05-03 21:20 41.91463 8.60348 3058 ft 121 kts 137°
2026-05-03 21:21 41.90705 8.60775 3057 ft 123 kts 179°
2026-05-03 21:21 41.89939 8.60253 3062 ft 130 kts 222°
2026-05-03 21:21 41.89349 8.59333 3059 ft 130 kts 226°
2026-05-03 21:21 41.88742 8.58437 3058 ft 129 kts 218°
2026-05-03 21:22 41.88051 8.57685 3057 ft 128 kts 214°
2026-05-03 21:22 41.87347 8.56950 3056 ft 128 kts 213°
2026-05-03 21:22 41.86654 8.56195 3058 ft 128 kts 214°
2026-05-03 21:22 41.85963 8.55439 3054 ft 128 kts 214°
2026-05-03 21:23 41.85237 8.54769 3055 ft 126 kts 201°
2026-05-03 21:23 41.84443 8.54285 3053 ft 125 kts 198°
2026-05-03 21:23 41.83643 8.53830 3052 ft 125 kts 198°
2026-05-03 21:23 41.82839 8.53391 3051 ft 125 kts 197°
2026-05-03 21:24 41.82023 8.53029 3053 ft 123 kts 188°
2026-05-03 21:24 41.81183 8.52796 3050 ft 123 kts 187°
2026-05-03 21:24 41.80345 8.52568 3050 ft 123 kts 187°
2026-05-03 21:24 41.79501 8.52361 3049 ft 123 kts 181°
2026-05-03 21:25 41.78652 8.52314 3051 ft 122 kts 178°
2026-05-03 21:25 41.77801 8.52281 3049 ft 122 kts 178°
2026-05-03 21:25 41.76952 8.52247 3048 ft 122 kts 178°
2026-05-03 21:25 41.76102 8.52212 3048 ft 122 kts 178°
2026-05-03 21:26 41.75264 8.52179 3048 ft 122 kts 178°
2026-05-03 21:26 41.74414 8.52148 3047 ft 122 kts 178°
2026-05-03 21:26 41.73563 8.52116 3048 ft 122 kts 178°
2026-05-03 21:26 41.72725 8.52219 3050 ft 120 kts 166°
2026-05-03 21:27 41.71907 8.52443 3049 ft 120 kts 165°
2026-05-03 21:27 41.71105 8.52729 3044 ft 119 kts 154°
2026-05-03 21:27 41.70374 8.53242 3045 ft 118 kts 150°
2026-05-03 21:27 41.69651 8.53769 3045 ft 118 kts 150°
2026-05-03 21:28 41.68944 8.54329 3044 ft 118 kts 143°
2026-05-03 21:28 41.68340 8.55062 3042 ft 119 kts 121°
2026-05-03 21:28 41.68207 8.56150 3046 ft 122 kts 92°
2026-05-03 21:28 41.68463 8.57245 3042 ft 123 kts 84°
2026-05-03 21:29 41.68382 8.58349 3047 ft 119 kts 103°
2026-05-03 21:29 41.68281 8.59456 3047 ft 121 kts 94°
2026-05-03 21:29 41.68398 8.60583 3050 ft 125 kts 78°
2026-05-03 21:29 41.68822 8.61616 3051 ft 128 kts 64°
2026-05-03 21:30 41.69304 8.62616 3050 ft 128 kts 62°
2026-05-03 21:30 41.69803 8.63604 3051 ft 128 kts 61°
2026-05-03 21:30 41.70311 8.64586 3053 ft 128 kts 60°
2026-05-03 21:30 41.70821 8.65564 3055 ft 128 kts 60°
2026-05-03 21:31 41.71332 8.66541 3054 ft 128 kts 60°
2026-05-03 21:31 41.71935 8.67416 3052 ft 133 kts 35°
2026-05-03 21:31 41.72758 8.67990 3055 ft 134 kts 32°
2026-05-03 21:31 41.73593 8.68538 3060 ft 134 kts 31°
2026-05-03 21:32 41.74433 8.69073 3058 ft 134 kts 30°
2026-05-03 21:32 41.75276 8.69587 3048 ft 133 kts 29°
2026-05-03 21:32 41.76105 8.70107 3062 ft 129 kts 31°
2026-05-03 21:32 41.76897 8.70602 3046 ft 121 kts 30°
2026-05-03 21:33 41.77638 8.71061 2962 ft 113 kts 31°
2026-05-03 21:33 41.78344 8.71500 2829 ft 114 kts 31°
2026-05-03 21:33 41.79065 8.71950 2671 ft 116 kts 29°
2026-05-03 21:33 41.79834 8.72431 2505 ft 125 kts 26°
2026-05-03 21:34 41.80597 8.72897 2349 ft 120 kts 26°
2026-05-03 21:34 41.81345 8.73362 2192 ft 117 kts 25°
2026-05-03 21:34 41.82084 8.73822 2038 ft 117 kts 25°
2026-05-03 21:34 41.82816 8.74278 1885 ft 116 kts 24°
2026-05-03 21:35 41.83546 8.74733 1731 ft 116 kts 23°
2026-05-03 21:35 41.84277 8.75189 1576 ft 116 kts 22°
2026-05-03 21:35 41.85022 8.75656 1410 ft 118 kts 23°
2026-05-03 21:35 41.85757 8.76113 1263 ft 116 kts 22°
2026-05-03 21:36 41.86476 8.76562 1228 ft 109 kts 20°
2026-05-03 21:36 41.87165 8.76989 1228 ft 109 kts 20°
2026-05-03 21:36 41.87858 8.77393 1223 ft 106 kts
2026-05-03 21:36 41.88538 8.77285 1230 ft 97 kts 335°
2026-05-03 21:37 41.89172 8.76958 1235 ft 99 kts 334°
2026-05-03 21:37 41.89846 8.76690 1233 ft 105 kts 355°
2026-05-03 21:37 41.90560 8.76981 1232 ft 109 kts 21°
2026-05-03 21:37 41.91241 8.77388 1232 ft 105 kts 20°
2026-05-03 21:38 41.91920 8.77816 1233 ft 110 kts 22°
2026-05-03 21:38 41.92609 8.78236 1240 ft 109 kts 20°
2026-05-03 21:38 41.93310 8.78677 1236 ft 112 kts 21°
2026-05-03 21:38 41.94022 8.79084 1238 ft 112 kts 20°
2026-05-03 21:39 41.94738 8.79534 1184 ft 115 kts 28°
2026-05-03 21:39 41.95260 8.80327 1043 ft 116 kts 76°
2026-05-03 21:39 41.95124 8.81314 1019 ft 107 kts 134°
2026-05-03 21:39 41.94452 8.81532 835 ft 97 kts 198°
2026-05-03 21:40 41.93891 8.81195 503 ft 81 kts 208°
2026-05-03 21:40 41.93427 8.80898 245 ft 72 kts 208°
2026-05-03 21:40 41.92952 8.80598 58 ft 77 kts 208°
2026-05-03 21:40 41.92527 8.80331 17 ft 53 kts 206°
2026-05-03 21:41 41.92329 8.80205 18 ft 15 kts 206°
2026-05-03 21:41 41.92276 8.80113 18 ft 12 kts 275°
2026-05-03 21:41 41.92284 8.79994 16 ft 12 kts 277°
2026-05-03 21:41 41.92291 8.79894 16 ft 9 kts 274°
2026-05-03 21:42 41.92255 8.79827 16 ft 9 kts 207°
2026-05-03 21:42 41.92194 8.79790 16 ft 10 kts 204°
2026-05-03 21:42 41.92132 8.79748 16 ft 10 kts 208°
2026-05-03 21:42 41.92082 8.79694 16 ft 8 kts 229°
2026-05-03 21:43 41.92088 8.79643 16 ft 5 kts 294°
2026-05-03 21:43 41.92098 8.79633 16 ft 0 kts 344°